Time,TemperatureF,DewpointF,PressureIn,WindDirection,WindDirectionDegrees,WindSpeedMPH,WindSpeedGustMPH,Humidity,HourlyPrecipIn,Conditions,Clouds,dailyrainin,SoftwareType,DateUTC
2013-08-11 00:02:00,65.0,58.0,-100.00,NW,315,6.0,9.0,78,-99.99,,,-99.99,,2013-08-11 05:02:00,
2013-08-11 00:35:00,64.0,60.0,-100.00,NNW,345,7.0,11.0,87,-99.99,,,-99.99,,2013-08-11 05:35:00,
2013-08-11 00:49:00,64.0,60.0,-100.00,NNW,345,7.0,11.0,87,-99.99,,,-99.99,,2013-08-11 05:49:00,
2013-08-11 00:56:00,64.0,60.0,-100.00,NNW,345,7.0,11.0,87,-99.99,,,-99.99,,2013-08-11 05:56:00,
2013-08-11 01:03:00,63.0,61.0,-100.00,North,0,7.0,11.0,94,-99.99,,,-99.99,,2013-08-11 06:03:00,
2013-08-11 01:17:00,63.0,61.0,-100.00,North,0,7.0,11.0,94,-99.99,,,-99.99,,2013-08-11 06:17:00,
2013-08-11 01:25:00,63.0,61.0,-100.00,North,0,7.0,11.0,94,-99.99,,,-99.99,,2013-08-11 06:25:00,
2013-08-11 01:34:00,62.0,61.0,-100.00,NE,35,5.0,10.0,97,-99.99,,,-99.99,,2013-08-11 06:34:00,
2013-08-11 01:36:00,61.0,61.0,-100.00,NNW,345,6.0,7.0,99,-99.99,,,-99.99,,2013-08-11 06:36:00,
2013-08-11 01:49:00,62.0,61.0,-100.00,NE,35,5.0,10.0,97,-99.99,,,-99.99,,2013-08-11 06:49:00,
2013-08-11 01:57:00,62.0,61.0,-100.00,NE,35,5.0,10.0,97,-99.99,,,-99.99,,2013-08-11 06:57:00,
2013-08-11 02:06:00,61.0,61.0,-100.00,NNW,345,6.0,7.0,99,-99.99,,,-99.99,,2013-08-11 07:06:00,
2013-08-11 02:14:00,61.0,61.0,-100.00,NNW,345,6.0,7.0,99,-99.99,,,-99.99,,2013-08-11 07:14:00,
2013-08-11 03:08:00,60.0,60.0,-100.00,WNW,295,4.0,6.0,99,-99.99,,,-99.99,,2013-08-11 08:08:00,
2013-08-11 03:25:00,60.0,60.0,-100.00,WNW,295,4.0,6.0,99,-99.99,,,-99.99,,2013-08-11 08:25:00,
2013-08-11 03:34:00,60.0,60.0,-100.00,WNW,295,4.0,6.0,99,-99.99,,,-99.99,,2013-08-11 08:34:00,
2013-08-11 04:06:00,59.0,59.0,-100.00,West,260,1.0,2.0,99,-99.99,,,-99.99,,2013-08-11 09:06:00,
2013-08-11 04:14:00,59.0,59.0,-100.00,West,260,1.0,2.0,99,-99.99,,,-99.99,,2013-08-11 09:14:00,
2013-08-11 04:34:00,59.0,59.0,-100.00,NW,315,5.0,7.0,99,-99.99,,,-99.99,,2013-08-11 09:34:00,
2013-08-11 04:44:00,59.0,59.0,-100.00,NW,315,5.0,7.0,99,-99.99,,,-99.99,,2013-08-11 09:44:00,
2013-08-11 05:01:00,59.0,59.0,-100.00,NW,315,5.0,7.0,99,-99.99,,,-99.99,,2013-08-11 10:01:00,
2013-08-11 05:13:00,59.0,59.0,-100.00,NNW,335,10.0,14.0,99,-99.99,,,-99.99,,2013-08-11 10:13:00,
2013-08-11 05:27:00,59.0,59.0,-100.00,NNW,335,10.0,14.0,99,-99.99,,,-99.99,,2013-08-11 10:27:00,
2013-08-11 05:34:00,59.0,59.0,-100.00,NNW,345,9.0,12.0,99,-99.99,,,-99.99,,2013-08-11 10:34:00,
2013-08-11 05:47:00,59.0,59.0,-100.00,NNW,345,9.0,12.0,99,-99.99,,,-99.99,,2013-08-11 10:47:00,
2013-08-11 05:57:00,59.0,59.0,-100.00,NNW,345,9.0,12.0,99,-99.99,,,-99.99,,2013-08-11 10:57:00,
2013-08-11 06:06:00,59.0,58.0,-100.00,North,350,4.0,7.0,99,-99.99,,,-99.99,,2013-08-11 11:06:00,
2013-08-11 06:13:00,59.0,58.0,-100.00,North,350,4.0,7.0,99,-99.99,,,-99.99,,2013-08-11 11:13:00,
2013-08-11 06:36:00,58.0,58.0,-100.00,NNW,340,6.0,7.0,99,-99.99,,,-99.99,,2013-08-11 11:36:00,
2013-08-11 06:49:00,58.0,58.0,-100.00,NNW,340,6.0,7.0,99,-99.99,,,-99.99,,2013-08-11 11:49:00,
2013-08-11 06:59:00,58.0,58.0,-100.00,NNW,340,6.0,7.0,99,-99.99,,,-99.99,,2013-08-11 11:59:00,
2013-08-11 07:05:00,58.0,58.0,-100.00,North,355,6.0,9.0,99,-99.99,,,-99.99,,2013-08-11 12:05:00,
2013-08-11 07:14:00,58.0,58.0,-100.00,North,355,6.0,9.0,99,-99.99,,,-99.99,,2013-08-11 12:14:00,
2013-08-11 07:27:00,58.0,58.0,-100.00,North,355,6.0,9.0,99,-99.99,,,-99.99,,2013-08-11 12:27:00,
2013-08-11 07:35:00,58.0,58.0,-100.00,North,0,7.0,12.0,99,-99.99,,,-99.99,,2013-08-11 12:35:00,
2013-08-11 07:47:00,58.0,58.0,-100.00,North,0,7.0,12.0,99,-99.99,,,-99.99,,2013-08-11 12:47:00,
2013-08-11 07:56:00,58.0,58.0,-100.00,North,0,7.0,12.0,99,-99.99,,,-99.99,,2013-08-11 12:56:00,
2013-08-11 08:16:00,58.0,58.0,-100.00,NNW,340,6.0,9.0,99,-99.99,,,-99.99,,2013-08-11 13:16:00,
2013-08-11 08:24:00,58.0,58.0,-100.00,NNW,340,6.0,9.0,99,-99.99,,,-99.99,,2013-08-11 13:24:00,
2013-08-11 08:48:00,58.0,58.0,-100.00,North,5,9.0,12.0,99,-99.99,,,-99.99,,2013-08-11 13:48:00,
2013-08-11 08:58:00,58.0,58.0,-100.00,North,5,9.0,12.0,99,-99.99,,,-99.99,,2013-08-11 13:58:00,
2013-08-11 09:24:00,59.0,58.0,-100.00,North,0,6.0,11.0,96,-99.99,,,-99.99,,2013-08-11 14:24:00,
2013-08-11 09:34:00,60.0,57.0,-100.00,NNW,330,6.0,11.0,90,-99.99,,,-99.99,,2013-08-11 14:34:00,
2013-08-11 09:49:00,60.0,57.0,-100.00,NNW,330,6.0,11.0,90,-99.99,,,-99.99,,2013-08-11 14:49:00,
2013-08-11 09:57:00,60.0,57.0,-100.00,NNW,330,6.0,11.0,90,-99.99,,,-99.99,,2013-08-11 14:57:00,
2013-08-11 10:05:00,62.0,57.0,-100.00,North,5,6.0,9.0,85,-99.99,,,-99.99,,2013-08-11 15:05:00,
2013-08-11 10:14:00,62.0,57.0,-100.00,North,5,6.0,9.0,85,-99.99,,,-99.99,,2013-08-11 15:14:00,
2013-08-11 10:24:00,62.0,57.0,-100.00,North,5,6.0,9.0,85,-99.99,,,-99.99,,2013-08-11 15:24:00,
2013-08-11 10:36:00,65.0,57.0,-100.00,North,355,7.0,12.0,76,-99.99,,,-99.99,,2013-08-11 15:36:00,
2013-08-11 10:49:00,65.0,57.0,-100.00,North,355,7.0,12.0,76,-99.99,,,-99.99,,2013-08-11 15:49:00,
2013-08-11 11:06:00,65.0,55.0,-100.00,NNW,345,7.0,14.0,72,-99.99,,,-99.99,,2013-08-11 16:06:00,
2013-08-11 11:26:00,65.0,55.0,-100.00,NNW,345,7.0,14.0,72,-99.99,,,-99.99,,2013-08-11 16:26:00,
2013-08-11 11:37:00,67.0,56.0,-100.00,North,5,6.0,14.0,68,-99.99,,,-99.99,,2013-08-11 16:37:00,
2013-08-11 11:47:00,67.0,56.0,-100.00,North,5,6.0,14.0,68,-99.99,,,-99.99,,2013-08-11 16:47:00,
2013-08-11 11:57:00,67.0,56.0,-100.00,North,5,6.0,14.0,68,-99.99,,,-99.99,,2013-08-11 16:57:00,
2013-08-11 12:06:00,67.0,54.0,-100.00,North,355,9.0,14.0,65,-99.99,,,-99.99,,2013-08-11 17:06:00,
2013-08-11 12:13:00,67.0,54.0,-100.00,North,355,9.0,14.0,65,-99.99,,,-99.99,,2013-08-11 17:13:00,
2013-08-11 12:25:00,67.0,54.0,-100.00,North,355,9.0,14.0,65,-99.99,,,-99.99,,2013-08-11 17:25:00,
2013-08-11 12:34:00,69.0,54.0,-100.00,NNE,25,9.0,17.0,60,-99.99,,,-99.99,,2013-08-11 17:34:00,
2013-08-11 12:57:00,69.0,54.0,-100.00,NNE,25,9.0,17.0,60,-99.99,,,-99.99,,2013-08-11 17:57:00,
2013-08-11 13:05:00,69.0,55.0,-100.00,North,350,7.0,16.0,61,-99.99,,,-99.99,,2013-08-11 18:05:00,
2013-08-11 13:17:00,69.0,55.0,-100.00,North,350,7.0,16.0,61,-99.99,,,-99.99,,2013-08-11 18:17:00,
2013-08-11 13:25:00,69.0,55.0,-100.00,North,350,7.0,16.0,61,-99.99,,,-99.99,,2013-08-11 18:25:00,
2013-08-11 13:37:00,71.0,55.0,-100.00,NNE,20,4.0,11.0,58,-99.99,,,-99.99,,2013-08-11 18:37:00,
2013-08-11 13:49:00,71.0,55.0,-100.00,NNE,20,4.0,11.0,58,-99.99,,,-99.99,,2013-08-11 18:49:00,
2013-08-11 13:56:00,71.0,55.0,-100.00,NNE,20,4.0,11.0,58,-99.99,,,-99.99,,2013-08-11 18:56:00,
2013-08-11 14:14:00,71.0,54.0,-100.00,NNE,25,10.0,16.0,56,-99.99,,,-99.99,,2013-08-11 19:14:00,
2013-08-11 14:24:00,71.0,54.0,-100.00,NNE,25,10.0,16.0,56,-99.99,,,-99.99,,2013-08-11 19:24:00,
2013-08-11 14:33:00,74.0,55.0,-100.00,NE,55,4.0,8.0,52,-99.99,,,-99.99,,2013-08-11 19:33:00,
2013-08-11 14:51:00,74.0,55.0,-100.00,NE,55,4.0,8.0,52,-99.99,,,-99.99,,2013-08-11 19:51:00,
2013-08-11 14:59:00,74.0,55.0,-100.00,NE,55,4.0,8.0,52,-99.99,,,-99.99,,2013-08-11 19:59:00,
2013-08-11 15:37:00,76.0,55.0,-100.00,NNE,25,4.0,10.0,48,-99.99,,,-99.99,,2013-08-11 20:37:00,
2013-08-11 15:50:00,76.0,55.0,-100.00,NNE,25,4.0,10.0,48,-99.99,,,-99.99,,2013-08-11 20:50:00,
2013-08-11 15:58:00,76.0,55.0,-100.00,NNE,25,4.0,10.0,48,-99.99,,,-99.99,,2013-08-11 20:58:00,
2013-08-11 17:04:00,74.0,53.0,-100.00,WNW,285,2.0,9.0,48,-99.99,,,-99.99,,2013-08-11 22:04:00,
2013-08-11 17:14:00,74.0,53.0,-100.00,WNW,285,2.0,9.0,48,-99.99,,,-99.99,,2013-08-11 22:14:00,
2013-08-11 17:35:00,76.0,53.0,-100.00,WNW,290,5.0,9.0,45,-99.99,,,-99.99,,2013-08-11 22:35:00,
2013-08-11 17:47:00,76.0,53.0,-100.00,WNW,290,5.0,9.0,45,-99.99,,,-99.99,,2013-08-11 22:47:00,
2013-08-11 17:57:00,76.0,53.0,-100.00,WNW,290,5.0,9.0,45,-99.99,,,-99.99,,2013-08-11 22:57:00,
2013-08-11 18:03:00,76.0,53.0,-100.00,NE,45,5.0,8.0,45,-99.99,,,-99.99,,2013-08-11 23:03:00,
2013-08-11 18:15:00,76.0,53.0,-100.00,NE,45,5.0,8.0,45,-99.99,,,-99.99,,2013-08-11 23:15:00,
2013-08-11 18:34:00,76.0,52.0,-100.00,WNW,300,5.0,9.0,44,-99.99,,,-99.99,,2013-08-11 23:34:00,
2013-08-11 18:49:00,76.0,52.0,-100.00,WNW,300,5.0,9.0,44,-99.99,,,-99.99,,2013-08-11 23:49:00,
2013-08-11 18:57:00,76.0,52.0,-100.00,WNW,300,5.0,9.0,44,-99.99,,,-99.99,,2013-08-11 23:57:00,
2013-08-11 19:04:00,77.0,53.0,-100.00,NNE,30,3.0,8.0,43,-99.99,,,-99.99,,2013-08-12 00:04:00,
2013-08-11 19:16:00,77.0,53.0,-100.00,NNE,30,3.0,8.0,43,-99.99,,,-99.99,,2013-08-12 00:16:00,
2013-08-11 19:23:00,77.0,53.0,-100.00,NNE,30,3.0,8.0,43,-99.99,,,-99.99,,2013-08-12 00:23:00,
2013-08-11 19:35:00,75.0,52.0,-100.00,North,0,7.0,9.0,44,-99.99,,,-99.99,,2013-08-12 00:35:00,
2013-08-11 19:52:00,75.0,52.0,-100.00,North,0,7.0,9.0,44,-99.99,,,-99.99,,2013-08-12 00:52:00,
2013-08-11 19:58:00,75.0,52.0,-100.00,North,0,7.0,9.0,44,-99.99,,,-99.99,,2013-08-12 00:58:00,
2013-08-11 20:05:00,75.0,53.0,-100.00,NNE,25,4.0,6.0,47,-99.99,,,-99.99,,2013-08-12 01:05:00,
2013-08-11 20:13:00,75.0,53.0,-100.00,NNE,25,4.0,6.0,47,-99.99,,,-99.99,,2013-08-12 01:13:00,
2013-08-11 20:24:00,75.0,53.0,-100.00,NNE,25,4.0,6.0,47,-99.99,,,-99.99,,2013-08-12 01:24:00,
2013-08-11 20:35:00,74.0,53.0,-100.00,NNE,30,2.0,4.0,49,-99.99,,,-99.99,,2013-08-12 01:35:00,
2013-08-11 20:48:00,74.0,53.0,-100.00,NNE,30,2.0,4.0,49,-99.99,,,-99.99,,2013-08-12 01:48:00,
2013-08-11 20:55:00,74.0,53.0,-100.00,NNE,30,2.0,4.0,49,-99.99,,,-99.99,,2013-08-12 01:55:00,
2013-08-11 21:14:00,71.0,52.0,-100.00,North,10,1.0,4.0,51,-99.99,,,-99.99,,2013-08-12 02:14:00,
2013-08-11 21:23:00,71.0,52.0,-100.00,North,10,1.0,4.0,51,-99.99,,,-99.99,,2013-08-12 02:23:00,
2013-08-11 21:35:00,69.0,52.0,-100.00,NNE,30,2.0,3.0,54,-99.99,,,-99.99,,2013-08-12 02:35:00,
2013-08-11 21:49:00,69.0,52.0,-100.00,NNE,30,2.0,3.0,54,-99.99,,,-99.99,,2013-08-12 02:49:00,
2013-08-11 22:05:00,66.0,53.0,-100.00,NNE,15,0.0,2.0,61,-99.99,,,-99.99,,2013-08-12 03:05:00,
2013-08-11 22:14:00,66.0,53.0,-100.00,NNE,15,0.0,2.0,61,-99.99,,,-99.99,,2013-08-12 03:14:00,
2013-08-11 22:25:00,66.0,53.0,-100.00,NNE,15,0.0,2.0,61,-99.99,,,-99.99,,2013-08-12 03:25:00,
2013-08-11 22:36:00,64.0,54.0,-100.00,NW,325,0.0,1.0,72,-99.99,,,-99.99,,2013-08-12 03:36:00,
2013-08-11 22:48:00,64.0,54.0,-100.00,NW,325,0.0,1.0,72,-99.99,,,-99.99,,2013-08-12 03:48:00,
2013-08-11 23:00:00,64.0,54.0,-100.00,NW,325,0.0,1.0,72,-99.99,,,-99.99,,2013-08-12 04:00:00,
2013-08-11 23:02:00,62.0,56.0,-100.00,WSW,240,1.0,1.0,82,-99.99,,,-99.99,,2013-08-12 04:02:00,
2013-08-11 23:12:00,62.0,56.0,-100.00,WSW,240,1.0,1.0,82,-99.99,,,-99.99,,2013-08-12 04:12:00,
2013-08-11 23:22:00,62.0,56.0,-100.00,WSW,240,1.0,1.0,82,-99.99,,,-99.99,,2013-08-12 04:22:00,
2013-08-11 23:33:00,61.0,56.0,-100.00,West,260,1.0,1.0,86,-99.99,,,-99.99,,2013-08-12 04:33:00,
2013-08-11 23:43:00,61.0,56.0,-100.00,West,260,1.0,1.0,86,-99.99,,,-99.99,,2013-08-12 04:43:00,
2013-08-11 23:52:00,61.0,56.0,-100.00,West,260,1.0,1.0,86,-99.99,,,-99.99,,2013-08-12 04:52:00,